TimePST,TemperatureF,Dew PointF,Humidity,Sea Level PressureIn,VisibilityMPH,Wind Direction,Wind SpeedMPH,Gust SpeedMPH,PrecipitationIn,Events,Conditions,WindDirDegrees,DateUTC
12:53 AM,46.0,37.0,71,29.97,10.0,West,5.8,-,N/A,,Overcast,270,2013-02-19 08:53:00
1:53 AM,45.0,37.0,74,29.97,10.0,WNW,3.5,-,N/A,,Overcast,290,2013-02-19 09:53:00
2:53 AM,45.0,36.0,71,29.96,10.0,WNW,3.5,-,N/A,,Overcast,290,2013-02-19 10:53:00
3:53 AM,45.0,36.0,71,29.95,10.0,NW,3.5,-,N/A,,Overcast,320,2013-02-19 11:53:00
4:53 AM,45.0,36.0,71,29.95,10.0,Calm,Calm,-,N/A,,Overcast,0,2013-02-19 12:53:00
5:53 AM,42.1,37.0,82,29.95,10.0,NNW,4.6,-,N/A,,Mostly Cloudy,330,2013-02-19 13:53:00
6:53 AM,39.9,37.0,89,29.95,10.0,West,5.8,-,N/A,,Mostly Cloudy,270,2013-02-19 14:53:00
7:25 AM,42.8,37.4,81,29.95,10.0,NW,5.8,-,N/A,,Overcast,310,2013-02-19 15:25:00
7:53 AM,43.0,39.0,86,29.96,10.0,NW,3.5,-,N/A,,Overcast,310,2013-02-19 15:53:00
8:06 AM,42.8,39.2,87,29.95,10.0,NW,4.6,-,N/A,,Overcast,310,2013-02-19 16:06:00
8:53 AM,45.0,39.0,80,29.94,10.0,WNW,3.5,-,N/A,,Mostly Cloudy,300,2013-02-19 16:53:00
10:53 AM,52.0,37.0,57,29.91,10.0,SSW,4.6,-,N/A,,Partly Cloudy,210,2013-02-19 18:53:00
11:53 AM,54.0,37.0,53,29.86,10.0,SSW,17.3,21.9,N/A,,Overcast,200,2013-02-19 19:53:00
12:53 PM,51.1,39.0,63,29.84,10.0,SW,19.6,26.5,0.00,Rain,Light Rain,230,2013-02-19 20:53:00
1:53 PM,51.1,39.9,66,29.81,10.0,SW,16.1,23.0,0.00,,Overcast,220,2013-02-19 21:53:00
2:53 PM,46.9,42.1,83,29.78,10.0,South,10.4,-,0.00,Rain,Light Rain,180,2013-02-19 22:53:00
3:05 PM,46.4,42.8,87,29.77,10.0,SSW,9.2,-,0.00,,Overcast,200,2013-02-19 23:05:00
3:13 PM,46.4,42.8,87,29.76,10.0,SSW,11.5,-,0.00,,Overcast,200,2013-02-19 23:13:00
4:27 PM,42.8,39.2,87,29.76,9.0,NW,11.5,-,0.06,Rain,Light Rain,310,2013-02-20 00:27:00
4:53 PM,42.1,37.9,85,29.74,10.0,North,9.2,-,0.09,Rain,Light Rain,10,2013-02-20 00:53:00
5:06 PM,42.8,37.4,81,29.75,10.0,North,9.2,-,0.00,,Overcast,360,2013-02-20 01:06:00
5:25 PM,42.8,37.4,81,29.75,10.0,WNW,4.6,-,0.00,,Overcast,300,2013-02-20 01:25:00
5:53 PM,42.1,37.9,85,29.77,10.0,WNW,5.8,-,0.00,,Overcast,300,2013-02-20 01:53:00
6:30 PM,41.0,39.2,93,29.76,10.0,Calm,Calm,-,N/A,,Partly Cloudy,0,2013-02-20 02:30:00
6:53 PM,39.9,37.9,93,29.78,10.0,West,4.6,-,N/A,,Partly Cloudy,270,2013-02-20 02:53:00
7:53 PM,39.9,37.0,89,29.78,10.0,Calm,Calm,-,N/A,,Scattered Clouds,0,2013-02-20 03:53:00
8:06 PM,37.4,37.4,100,29.77,10.0,Calm,Calm,-,N/A,,Mostly Cloudy,0,2013-02-20 04:06:00
8:50 PM,39.2,35.6,87,29.78,10.0,WNW,6.9,-,0.00,,Mostly Cloudy,290,2013-02-20 04:50:00
8:53 PM,39.9,36.0,86,29.79,10.0,NW,8.1,-,0.00,,Mostly Cloudy,310,2013-02-20 04:53:00
9:53 PM,37.0,34.0,89,29.80,10.0,NW,4.6,-,0.00,,Clear,320,2013-02-20 05:53:00
10:53 PM,35.1,34.0,96,29.80,10.0,Calm,Calm,-,N/A,,Clear,0,2013-02-20 06:53:00
11:53 PM,35.1,33.1,92,29.81,10.0,Calm,Calm,-,N/A,,Scattered Clouds,0,2013-02-20 07:53:00